[[{"header":{"parameterUnit":"m.s-1","parameterCategory":1,"la1":30.2991,"la2":30.254,"lo1":-89.0895,"lo2":-89.0444,"dy":0.0017,"dx":0.0017,"nx":28,"ny":28,"refTime":"2025-08-13T21:00:00:Z","depth":0,"parameterNumber":2,"parameterNumberName":"U-component_of_WINDS"},"data":[0,0,0,0,0,0,0,0,0,0,0,0,0,0,0,0,0,0,0,0,0,0,0,0,0,0,0,0,0,0,0,0,0,0,0,0,0,0,0,0,0,0,0,0,0,0,0,0,0,0,0,0,0,0,0,0,0,0,2.0752,2.0752,0,2.0765,2.0765,2.0765,2.0757,2.0756,2.0756,2.0756,2.0768,2.0769,2.077,0,0,0,0,0,0,0,0,0,0,0,0,0,2.072,2.0721,2.0752,2.0752,2.0752,2.0765,2.0765,2.0765,2.0757,2.0756,2.0756,2.0756,2.0768,2.0769,2.077,0,0,0,0,0,0,0,0,0,0,0,0,0,2.0734,2.0721,2.0752,2.075,2.0749,2.0765,2.0765,2.0765,2.0757,2.0756,2.0756,2.0755,2.0768,2.0769,2.077,2.0788,0,0,2.0773,2.0773,0,0,0,0,0,0,0,0,2.0733,2.0735,2.075,2.075,2.075,2.0759,2.0759,2.0773,2.0757,2.0754,2.0756,2.0755,2.0765,2.0767,2.077,2.0788,2.0789,2.0773,2.0774,2.0774,2.0774,0,0,0,0,0,0,0,2.0732,2.0734,2.0757,2.075,2.075,2.0748,2.0749,2.0761,2.0763,2.0754,2.0754,2.0756,2.0765,2.0769,2.0771,2.0789,2.0773,2.0774,2.0775,2.0775,2.0825,2.0826,0,0,0,0,0,0,2.0731,2.0734,2.0757,2.0757,2.074,2.0749,2.0751,2.0756,2.0763,2.0763,2.0756,2.0755,2.0768,2.0769,2.0771,2.0794,2.0774,2.0775,2.0776,2.0825,2.0825,2.0826,0,0,0,0,0,0,2.0731,2.0733,2.0756,2.0745,2.0748,2.075,2.0757,2.0757,2.0761,2.0764,2.0764,2.076,2.0767,2.077,2.0784,2.0794,2.0776,2.0776,2.0824,2.0825,2.0826,2.0839,0,0,0,0,0,0,2.073,2.0733,2.074,2.0746,2.0749,2.0769,2.0758,2.0758,2.0763,2.0762,2.0768,2.0768,2.0767,2.0783,2.0785,2.0795,2.0777,2.0823,2.0824,2.0825,2.0837,2.084,2.0842,0,0,0,0,0,2.0729,2.0742,2.074,2.0743,2.0757,2.0769,2.0771,2.077,2.0764,2.0771,2.0773,2.0768,2.0793,2.0784,2.0787,2.0797,2.0822,2.0824,2.0825,2.0836,2.084,2.0842,0,0,0,0,0,0,2.0736,2.0743,2.074,2.0756,2.0762,2.0768,2.0776,2.0773,2.0781,2.078,2.0778,2.078,2.0795,2.0798,2.0788,2.0817,2.0807,2.0809,2.0814,2.0817,2.082,2.0818,2.0778,0,0,0,0,0,2.074,2.0749,2.0755,2.0768,2.0771,2.0774,2.0779,2.0778,2.0784,2.0786,2.079,2.0796,2.0806,2.0812,2.082,2.0838,2.084,2.0847,2.085,2.0852,2.0853,2.0865,2.0868,2.0831,2.0831,2.0831,0,0,2.0747,2.0752,2.0757,2.077,2.0774,2.0785,2.0775,2.0786,2.0794,2.0788,2.0802,2.0806,2.0812,2.083,2.0837,2.0832,2.0864,2.0854,2.0855,2.0856,2.0867,2.087,2.0873,2.0832,2.0832,2.0832,0,0,2.0765,2.0769,2.0782,2.0787,2.0795,2.0797,2.08,2.0807,2.0809,2.0824,2.082,2.083,2.0846,2.0851,2.0856,2.0881,2.0876,2.0884,2.0896,2.0907,2.091,2.0913,2.0922,2.0925,2.0885,2.0885,2.0885,0,2.0772,2.0788,2.0788,2.08,2.0806,2.0803,2.0816,2.0821,2.0831,2.0836,2.0831,2.0852,2.0856,2.0875,2.0882,2.0886,2.089,2.0882,2.091,2.0912,2.0915,2.0923,2.0927,2.0886,2.0886,2.0886,2.0886,0,2.0797,2.0808,2.0818,2.0829,2.0836,2.0848,2.0851,2.0859,2.0858,2.0861,2.0877,2.0883,2.0894,2.0898,2.0897,2.0918,2.0915,2.091,2.0899,2.0919,2.0927,2.093,2.0887,2.0887,2.0887,2.0887,0,0,2.0818,2.0832,2.0835,2.0841,2.0851,2.0859,2.0873,2.0884,2.0891,2.0899,2.091,2.0926,2.0922,2.0927,2.0927,2.0937,2.0957,2.0931,2.0931,2.0936,2.0982,2.0985,2.0989,2.0956,2.0956,2.0957,2.0981,0,2.0837,2.086,2.0862,2.0883,2.0894,2.0893,2.0904,2.0912,2.0916,2.0926,2.093,2.0941,2.0935,2.0939,2.0949,2.0953,2.0967,2.0951,2.0966,2.0967,2.0964,2.0993,2.0996,2.1019,2.0985,2.0985,2.0985,0,2.0861,2.0872,2.0894,2.0905,2.0909,2.092,2.0932,2.0941,2.0951,2.0953,2.0961,2.0961,2.0975,2.0966,2.0986,2.0976,2.0983,2.0986,2.0987,2.0988,2.0976,2.0995,2.1026,2.103,2.099,2.099,2.099,0,2.0875,2.0894,2.091,2.0915,2.0928,2.0936,2.0941,2.0951,2.0958,2.0969,2.0974,2.0986,2.0992,2.1002,2.1005,2.0998,2.1026,2.1017,2.1029,2.1029,2.1033,2.1033,2.1066,2.1039,2.1039,2.1039,2.1039,0,2.0895,2.0909,2.0917,2.0926,2.0943,2.0946,2.0962,2.0967,2.0976,2.0987,2.0987,2.0998,2.1002,2.1014,2.1016,2.1034,2.1037,2.1039,2.1039,2.1039,2.1038,2.1042,2.104,2.104,2.1039,2.1039,2.1039,0,2.0912,2.0917,2.0935,2.0947,2.095,2.0962,2.0972,2.0982,2.0987,2.1001,2.1005,2.1013,2.1027,2.1031,2.1048,2.105,2.107,2.107,2.1067,2.1067,2.1079,2.1078,2.1115,2.1121,2.109,2.109,2.1091,0,2.0924,2.0935,2.0948,2.0956,2.0963,2.0976,2.0984,2.0989,2.0997,2.1011,2.102,2.1034,2.1046,2.1069,2.1075,2.1089,2.1088,2.1101,2.109,2.109,2.1089,2.1088,2.1089,2.1102,2.1103,2.1103,2.1103,0,2.0945,2.0948,2.096,2.0975,2.0985,2.0996,2.1006,2.1013,2.102,2.103,2.1045,2.1054,2.1073,2.1087,2.1101,2.1108,2.1107,2.1107,2.111,2.1109,2.1107,2.1109,2.1072,2.1105,2.1105,2.1105,2.1105,2.1105,2.096,2.097,2.0982,2.0996,2.1005,2.1016,2.1027,2.1034,2.1047,2.1062,2.1065,2.1081,2.1093,2.1112,2.112,2.1133,2.1129,2.1134,2.1135,2.1136,2.1138,2.1106,2.1136,2.1136,2.1136,2.1135,2.1135,0,2.0981,2.099,2.1003,2.1019,2.1031,2.103,2.1043,2.1053,2.1067,2.1079,2.1091,2.1109,2.1124,2.1133,2.1149,2.1158,2.1158,2.1161,2.116,2.1162,2.114,2.1135,2.1161,2.1161,2.1161,2.1161,2.1161,2.1161,2.0994,2.1012,2.1017,2.104,2.1048,2.1065,2.1072,2.1082,2.1092,2.1112,2.1125,2.1132,2.1143,2.1159,2.1173,2.1176,2.1181,2.1185,2.1187,2.1166,2.1163,2.1161,2.1157,2.1187,2.1187,2.1209,2.1209,2.1209]},{"header":{"parameterUnit":"m.s-1","parameterCategory":1,"la1":30.2991,"la2":30.254,"lo1":-89.0895,"lo2":-89.0444,"dy":0.0017,"dx":0.0017,"nx":28,"ny":28,"refTime":"2025-08-13T21:00:00:Z","depth":0,"parameterNumber":3,"parameterNumberName":"V-component_of_WINDS"},"data":[0,0,0,0,0,0,0,0,0,0,0,0,0,0,0,0,0,0,0,0,0,0,0,0,0,0,0,0,0,0,0,0,0,0,0,0,0,0,0,0,0,0,0,0,0,0,0,0,0,0,0,0,0,0,0,0,0,0,-1.6612,-1.6612,0,-1.6658,-1.6659,-1.6659,-1.6681,-1.6681,-1.6681,-1.6681,-1.6727,-1.6728,-1.6729,0,0,0,0,0,0,0,0,0,0,0,0,0,-1.6541,-1.6542,-1.6612,-1.6612,-1.6613,-1.6658,-1.6659,-1.666,-1.6681,-1.6681,-1.6681,-1.6681,-1.6727,-1.6728,-1.6729,0,0,0,0,0,0,0,0,0,0,0,0,0,-1.6578,-1.6542,-1.6612,-1.6629,-1.6631,-1.6658,-1.6659,-1.666,-1.6681,-1.6681,-1.6681,-1.6681,-1.6726,-1.6728,-1.673,-1.6742,0,0,-1.6735,-1.6736,0,0,0,0,0,0,0,0,-1.6576,-1.658,-1.6626,-1.6628,-1.663,-1.6664,-1.6651,-1.6687,-1.6681,-1.6662,-1.6681,-1.6681,-1.6706,-1.6709,-1.6718,-1.6744,-1.6746,-1.6735,-1.6737,-1.6737,-1.6738,0,0,0,0,0,0,0,-1.6573,-1.6579,-1.663,-1.6627,-1.6629,-1.6635,-1.664,-1.6658,-1.6684,-1.6664,-1.6666,-1.6671,-1.6707,-1.6716,-1.6719,-1.6746,-1.6735,-1.6737,-1.6738,-1.6739,-1.6787,-1.6787,0,0,0,0,0,0,-1.6568,-1.6576,-1.6629,-1.6631,-1.6603,-1.6636,-1.6642,-1.6653,-1.6684,-1.6688,-1.6671,-1.6672,-1.6713,-1.6717,-1.6721,-1.6739,-1.6737,-1.6739,-1.674,-1.6787,-1.6787,-1.6787,0,0,0,0,0,0,-1.6566,-1.6572,-1.6627,-1.6604,-1.6612,-1.6637,-1.665,-1.6654,-1.6664,-1.6689,-1.6693,-1.6676,-1.6713,-1.6718,-1.6737,-1.6741,-1.674,-1.6742,-1.6787,-1.6787,-1.6787,-1.6773,0,0,0,0,0,0,-1.6564,-1.6572,-1.6576,-1.6604,-1.6613,-1.6642,-1.665,-1.6655,-1.6667,-1.6669,-1.6695,-1.6699,-1.6714,-1.6734,-1.6739,-1.6743,-1.6743,-1.6786,-1.6787,-1.6787,-1.6774,-1.6773,-1.6773,0,0,0,0,0,-1.6562,-1.657,-1.6576,-1.6583,-1.6619,-1.6642,-1.6647,-1.6665,-1.6667,-1.6672,-1.6689,-1.6698,-1.674,-1.6736,-1.6741,-1.6746,-1.6786,-1.6787,-1.6787,-1.6774,-1.6773,-1.6773,0,0,0,0,0,0,-1.654,-1.6573,-1.6581,-1.6599,-1.6618,-1.6646,-1.6653,-1.6663,-1.6681,-1.6681,-1.6702,-1.6708,-1.6725,-1.6737,-1.6733,-1.6761,-1.6764,-1.6765,-1.6752,-1.6752,-1.6751,-1.6748,-1.6745,0,0,0,0,0,-1.6537,-1.6553,-1.6582,-1.6594,-1.6603,-1.6627,-1.6637,-1.6649,-1.6669,-1.6677,-1.6695,-1.6713,-1.6731,-1.6742,-1.6759,-1.6776,-1.6782,-1.6782,-1.6781,-1.6781,-1.6782,-1.6794,-1.6794,-1.6788,-1.6788,-1.6788,0,0,-1.6531,-1.6552,-1.6561,-1.659,-1.6606,-1.6623,-1.6633,-1.6649,-1.6662,-1.6679,-1.6699,-1.6713,-1.6735,-1.6753,-1.6762,-1.6764,-1.6785,-1.6781,-1.6781,-1.6782,-1.6794,-1.6795,-1.6795,-1.6789,-1.6789,-1.6789,0,0,-1.653,-1.6547,-1.656,-1.6577,-1.6601,-1.6617,-1.662,-1.6648,-1.6658,-1.6678,-1.6692,-1.6707,-1.6737,-1.6753,-1.6764,-1.6772,-1.6781,-1.6777,-1.6774,-1.6786,-1.6786,-1.6787,-1.6791,-1.6792,-1.6778,-1.6778,-1.6778,0,-1.6519,-1.6545,-1.6565,-1.6582,-1.6595,-1.6614,-1.6628,-1.6642,-1.6671,-1.668,-1.6682,-1.6721,-1.6737,-1.676,-1.6763,-1.6771,-1.6776,-1.6774,-1.6785,-1.6785,-1.6786,-1.679,-1.6791,-1.6777,-1.6777,-1.6777,-1.6777,0,-1.6532,-1.655,-1.6558,-1.6587,-1.6601,-1.6616,-1.6639,-1.6651,-1.6662,-1.6678,-1.6699,-1.672,-1.6742,-1.6749,-1.6759,-1.6774,-1.6775,-1.6781,-1.6784,-1.6786,-1.679,-1.6791,-1.6776,-1.6777,-1.6777,-1.6777,0,0,-1.6516,-1.6559,-1.6561,-1.6576,-1.6606,-1.662,-1.6636,-1.666,-1.6671,-1.669,-1.6705,-1.6731,-1.6737,-1.6751,-1.6764,-1.6773,-1.678,-1.6778,-1.6779,-1.6779,-1.6799,-1.6796,-1.6797,-1.6787,-1.6787,-1.6787,-1.6798,0,-1.652,-1.6551,-1.6571,-1.6594,-1.6612,-1.6631,-1.6645,-1.6665,-1.6681,-1.6698,-1.6715,-1.6734,-1.674,-1.6748,-1.6759,-1.6777,-1.6785,-1.6776,-1.6801,-1.6802,-1.6796,-1.6799,-1.6794,-1.6803,-1.68,-1.68,-1.68,0,-1.6527,-1.6549,-1.6574,-1.6605,-1.6613,-1.6625,-1.665,-1.6666,-1.669,-1.6701,-1.6717,-1.6731,-1.675,-1.6752,-1.6779,-1.6773,-1.6785,-1.6795,-1.6796,-1.6799,-1.6801,-1.6803,-1.6807,-1.6808,-1.6803,-1.6802,-1.6802,0,-1.6515,-1.655,-1.657,-1.6582,-1.6617,-1.6626,-1.6642,-1.6665,-1.6679,-1.6701,-1.671,-1.6733,-1.6745,-1.6763,-1.6783,-1.6782,-1.6808,-1.6812,-1.6818,-1.6818,-1.6823,-1.6822,-1.6829,-1.6829,-1.6829,-1.6829,-1.6829,0,-1.6517,-1.6532,-1.6566,-1.6578,-1.6596,-1.6619,-1.6637,-1.6653,-1.6675,-1.6691,-1.6709,-1.6724,-1.6749,-1.6767,-1.6782,-1.6804,-1.6809,-1.6818,-1.6822,-1.6817,-1.6816,-1.6825,-1.6825,-1.6829,-1.6829,-1.6829,-1.6829,0,-1.6505,-1.6529,-1.6552,-1.6585,-1.6594,-1.6606,-1.6634,-1.6647,-1.6665,-1.6686,-1.6692,-1.6719,-1.6742,-1.6763,-1.6793,-1.6804,-1.6825,-1.683,-1.6817,-1.682,-1.6826,-1.6825,-1.6839,-1.6842,-1.6839,-1.6839,-1.6839,0,-1.6505,-1.6518,-1.6553,-1.6566,-1.6581,-1.6601,-1.6616,-1.664,-1.6655,-1.6684,-1.6694,-1.6719,-1.6739,-1.6775,-1.6797,-1.6821,-1.6827,-1.683,-1.683,-1.6825,-1.6828,-1.6828,-1.683,-1.6829,-1.6829,-1.6829,-1.6829,0,-1.6503,-1.6514,-1.6536,-1.6562,-1.6579,-1.6601,-1.6622,-1.6632,-1.666,-1.6676,-1.67,-1.6716,-1.6748,-1.6773,-1.6799,-1.6815,-1.6827,-1.6829,-1.6832,-1.6827,-1.682,-1.6825,-1.6817,-1.6829,-1.6829,-1.6829,-1.6829,-1.6829,-1.6498,-1.6511,-1.6538,-1.6562,-1.6581,-1.6602,-1.6617,-1.6637,-1.6658,-1.6687,-1.67,-1.6725,-1.675,-1.6788,-1.6803,-1.6823,-1.6826,-1.683,-1.6831,-1.6832,-1.6832,-1.6817,-1.6828,-1.6828,-1.6828,-1.6828,-1.6828,0,-1.6497,-1.6517,-1.6538,-1.657,-1.6589,-1.66,-1.6625,-1.664,-1.6663,-1.6686,-1.6707,-1.6736,-1.676,-1.6785,-1.6811,-1.6823,-1.6829,-1.6829,-1.6828,-1.6832,-1.6827,-1.6822,-1.6823,-1.6823,-1.6823,-1.6823,-1.6823,-1.6823,-1.6499,-1.6523,-1.6538,-1.6571,-1.6591,-1.6616,-1.663,-1.665,-1.6669,-1.6701,-1.6722,-1.6739,-1.6763,-1.6792,-1.6815,-1.6822,-1.6831,-1.6829,-1.6837,-1.6832,-1.6832,-1.6832,-1.6828,-1.6831,-1.6831,-1.6841,-1.6841,-1.6841]}]]